sat.trackr.live / text

‹ back to catalog

ONEWEB-0207

NORAD 48242 · 2021-031AJ

PAYLOAD ACTIVE UNKNOWN

§ Identity

Operator
Country
UK
Launch date
2021-04-25
Launch site
VOSTO
Launch vehicle
Mass (kg)
RCS (m²)

Purposes: comms

External: N2YO · Heavens-Above · Gunter

§ Orbital elements

Epoch: 2026-09-19T08:02:00.577824Z

Period
109.55 min
Inclination
87.8900°
Eccentricity
0.0002053
Mean motion
13.14501813 rev/d
Perigee alt
1,204.2 km
Apogee alt
1,207.4 km
Semi-major
7,583.9 km
B*
5.9850e-4
RAAN
270.9251°
Arg perigee
99.9206°
Mean anomaly
260.2155°
Rev number
26,066

§ Raw data

ONEWEB-02071 48242U 21031AJ  26262.33472891  .00000235  00000+0  59850-3 0  99912 48242  87.8900 270.9251 0002053  99.9206 260.2155 13.14501813260663

JSON: /api/v1/satellites/48242 · /tle

For live sub-satellite position, see the globe view (requires WebGL).

§ Visibility from observer

Set your observer location to see the next 7 days of passes ≥ 10°. The values pass through the URL so the page stays shareable.

No JS? Fill the form by hand. The geolocation button needs JavaScript.